Time,TemperatureF,DewpointF,PressureIn,WindDirection,WindDirectionDegrees,WindSpeedMPH,WindSpeedGustMPH,Humidity,HourlyPrecipIn,Conditions,Clouds,dailyrainin,SoftwareType,DateUTC
2013-01-31 00:16:00,58.7,56.0,29.89,WNW,290,4.0,15.0,90,0.10,,,0.01,weatherlink.com 1.10,2013-01-31 05:16:00,
2013-01-31 00:31:00,57.8,55.0,29.90,NNW,327,7.0,17.0,91,0.11,,,0.02,weatherlink.com 1.10,2013-01-31 05:31:00,
2013-01-31 00:46:00,56.0,53.0,29.92,WNW,301,5.0,22.0,89,0.06,,,0.03,weatherlink.com 1.10,2013-01-31 05:46:00,
2013-01-31 01:01:00,54.4,52.0,29.91,West,269,6.0,17.0,90,0.06,,,0.06,weatherlink.com 1.10,2013-01-31 06:01:00,
2013-01-31 01:16:00,53.6,51.0,29.92,West,263,4.0,11.0,91,0.05,,,0.06,weatherlink.com 1.10,2013-01-31 06:16:00,
2013-01-31 01:31:00,53.3,51.0,29.93,WSW,258,1.0,9.0,92,0.04,,,0.06,weatherlink.com 1.10,2013-01-31 06:31:00,
2013-01-31 01:46:00,53.3,51.0,29.93,West,259,3.0,8.0,92,0.03,,,0.06,weatherlink.com 1.10,2013-01-31 06:46:00,
2013-01-31 02:01:00,53.5,51.0,29.93,SW,229,2.0,7.0,92,0.00,,,0.06,weatherlink.com 1.10,2013-01-31 07:01:00,
2013-01-31 02:16:00,53.4,51.0,29.94,WNW,288,5.0,11.0,92,0.00,,,0.06,weatherlink.com 1.10,2013-01-31 07:16:00,
2013-01-31 02:31:00,53.3,51.0,29.94,WSW,251,1.0,15.0,91,0.00,,,0.06,weatherlink.com 1.10,2013-01-31 07:31:00,
2013-01-31 02:46:00,53.4,51.0,29.94,West,274,2.0,8.0,91,0.00,,,0.06,weatherlink.com 1.10,2013-01-31 07:46:00,
2013-01-31 03:01:00,53.7,51.0,29.94,West,280,6.0,7.0,91,0.00,,,0.06,weatherlink.com 1.10,2013-01-31 08:01:00,
2013-01-31 03:16:00,53.9,51.0,29.94,WNW,295,6.0,9.0,90,0.00,,,0.06,weatherlink.com 1.10,2013-01-31 08:16:00,
2013-01-31 03:31:00,54.0,51.0,29.95,WNW,296,4.0,9.0,89,0.00,,,0.06,weatherlink.com 1.10,2013-01-31 08:31:00,
2013-01-31 03:46:00,53.7,51.0,29.95,WNW,295,2.0,10.0,89,0.00,,,0.06,weatherlink.com 1.10,2013-01-31 08:46:00,
2013-01-31 04:02:00,53.5,50.0,29.95,WNW,282,4.0,10.0,88,0.00,,,0.06,weatherlink.com 1.10,2013-01-31 09:02:00,
2013-01-31 04:17:00,53.3,50.0,29.96,West,280,2.0,9.0,87,0.00,,,0.06,weatherlink.com 1.10,2013-01-31 09:17:00,
2013-01-31 04:32:00,52.5,49.0,29.96,WNW,291,1.0,5.0,88,0.00,,,0.06,weatherlink.com 1.10,2013-01-31 09:32:00,
2013-01-31 04:47:00,52.3,49.0,29.97,West,278,3.0,11.0,89,0.00,,,0.06,weatherlink.com 1.10,2013-01-31 09:47:00,
2013-01-31 05:02:00,52.4,49.0,29.97,WNW,288,2.0,8.0,88,0.00,,,0.06,weatherlink.com 1.10,2013-01-31 10:02:00,
2013-01-31 05:17:00,52.3,49.0,29.98,NW,317,6.0,11.0,88,0.00,,,0.06,weatherlink.com 1.10,2013-01-31 10:17:00,
2013-01-31 05:32:00,52.4,48.0,29.99,NNW,332,3.0,15.0,85,0.00,,,0.06,weatherlink.com 1.10,2013-01-31 10:32:00,
2013-01-31 05:47:00,52.2,48.0,30.00,NNW,334,11.0,13.0,84,0.00,,,0.06,weatherlink.com 1.10,2013-01-31 10:47:00,
2013-01-31 06:02:00,52.0,47.0,30.01,NW,309,10.0,18.0,82,0.00,,,0.06,weatherlink.com 1.10,2013-01-31 11:02:00,
2013-01-31 06:17:00,51.5,46.0,30.03,NNW,340,6.0,16.0,80,0.00,,,0.06,weatherlink.com 1.10,2013-01-31 11:17:00,
2013-01-31 06:32:00,50.4,43.0,30.04,WSW,249,9.0,19.0,77,0.00,,,0.06,weatherlink.com 1.10,2013-01-31 11:32:00,
2013-01-31 06:47:00,49.6,42.0,30.05,West,281,12.0,18.0,76,0.00,,,0.06,weatherlink.com 1.10,2013-01-31 11:47:00,
2013-01-31 07:02:00,48.9,41.0,30.06,NNW,330,5.0,15.0,75,0.00,,,0.06,weatherlink.com 1.10,2013-01-31 12:02:00,
2013-01-31 07:17:00,48.1,41.0,30.06,NNW,328,7.0,12.0,76,0.00,,,0.06,weatherlink.com 1.10,2013-01-31 12:17:00,
2013-01-31 07:32:00,47.5,40.0,30.07,WNW,298,6.0,17.0,76,0.00,,,0.06,weatherlink.com 1.10,2013-01-31 12:32:00,
2013-01-31 07:47:00,48.0,40.0,30.08,WNW,298,2.0,12.0,75,0.00,,,0.06,weatherlink.com 1.10,2013-01-31 12:47:00,
2013-01-31 08:02:00,50.0,42.0,30.09,NNW,342,5.0,11.0,74,0.00,,,0.06,weatherlink.com 1.10,2013-01-31 13:02:00,
2013-01-31 08:17:00,50.8,42.0,30.10,NNW,334,6.0,14.0,71,0.00,,,0.06,weatherlink.com 1.10,2013-01-31 13:17:00,
2013-01-31 08:32:00,51.6,42.0,30.11,NW,306,3.0,15.0,69,0.00,,,0.06,weatherlink.com 1.10,2013-01-31 13:32:00,
2013-01-31 08:47:00,51.6,41.0,30.12,WNW,296,7.0,15.0,68,0.00,,,0.06,weatherlink.com 1.10,2013-01-31 13:47:00,
2013-01-31 09:02:00,51.5,39.0,30.13,NW,325,7.0,18.0,63,0.00,,,0.06,weatherlink.com 1.10,2013-01-31 14:02:00,
2013-01-31 09:17:00,51.8,38.0,30.13,NNW,333,11.0,16.0,60,0.00,,,0.06,weatherlink.com 1.10,2013-01-31 14:17:00,
2013-01-31 09:33:00,51.7,36.0,30.13,WNW,297,9.0,18.0,56,0.00,,,0.06,weatherlink.com 1.10,2013-01-31 14:33:00,
2013-01-31 09:48:00,52.4,36.0,30.14,West,281,5.0,18.0,55,0.00,,,0.06,weatherlink.com 1.10,2013-01-31 14:48:00,
2013-01-31 10:03:00,53.6,37.0,30.14,NW,320,9.0,14.0,54,0.00,,,0.06,weatherlink.com 1.10,2013-01-31 15:03:00,
2013-01-31 10:18:00,54.2,38.0,30.14,WNW,301,12.0,14.0,55,0.00,,,0.06,weatherlink.com 1.10,2013-01-31 15:18:00,
2013-01-31 10:33:00,55.5,39.0,30.14,NNW,336,9.0,11.0,55,0.00,,,0.06,weatherlink.com 1.10,2013-01-31 15:33:00,
2013-01-31 10:48:00,55.5,39.0,30.15,SW,225,4.0,14.0,55,0.00,,,0.06,weatherlink.com 1.10,2013-01-31 15:48:00,
2013-01-31 11:03:00,56.4,40.0,30.15,NW,306,5.0,14.0,54,0.00,,,0.06,weatherlink.com 1.10,2013-01-31 16:03:00,
2013-01-31 11:18:00,57.1,37.0,30.15,WNW,299,5.0,16.0,48,0.00,,,0.06,weatherlink.com 1.10,2013-01-31 16:18:00,
2013-01-31 11:33:00,57.1,37.0,30.14,WNW,297,3.0,16.0,48,0.00,,,0.06,weatherlink.com 1.10,2013-01-31 16:33:00,
2013-01-31 11:48:00,57.7,36.0,30.14,NW,322,1.0,13.0,45,0.00,,,0.06,weatherlink.com 1.10,2013-01-31 16:48:00,
2013-01-31 12:03:00,58.5,38.0,30.14,NW,321,6.0,17.0,46,0.00,,,0.06,weatherlink.com 1.10,2013-01-31 17:03:00,
2013-01-31 12:18:00,58.3,36.0,30.14,NNW,333,7.0,15.0,43,0.00,,,0.06,weatherlink.com 1.10,2013-01-31 17:18:00,
2013-01-31 12:33:00,59.2,36.0,30.14,West,275,6.0,15.0,43,0.00,,,0.06,weatherlink.com 1.10,2013-01-31 17:33:00,
2013-01-31 12:48:00,59.7,35.0,30.13,WNW,293,9.0,17.0,40,0.00,,,0.06,weatherlink.com 1.10,2013-01-31 17:48:00,
2013-01-31 13:03:00,59.4,34.0,30.13,NNW,327,5.0,16.0,39,0.00,,,0.06,weatherlink.com 1.10,2013-01-31 18:03:00,
2013-01-31 13:18:00,60.5,35.0,30.12,NW,312,7.0,14.0,38,0.00,,,0.06,weatherlink.com 1.10,2013-01-31 18:18:00,
2013-01-31 13:33:00,60.5,35.0,30.11,NW,306,8.0,15.0,38,0.00,,,0.06,weatherlink.com 1.10,2013-01-31 18:33:00,
2013-01-31 13:48:00,61.4,35.0,30.12,NW,309,2.0,17.0,37,0.00,,,0.06,weatherlink.com 1.10,2013-01-31 18:48:00,
2013-01-31 14:03:00,61.6,33.0,30.11,NNW,342,8.0,14.0,34,0.00,,,0.06,weatherlink.com 1.10,2013-01-31 19:03:00,
2013-01-31 14:18:00,62.0,33.0,30.12,WNW,293,5.0,13.0,34,0.00,,,0.06,weatherlink.com 1.10,2013-01-31 19:18:00,
2013-01-31 14:33:00,62.6,35.0,30.12,West,263,5.0,12.0,36,0.00,,,0.06,weatherlink.com 1.10,2013-01-31 19:33:00,
2013-01-31 14:48:00,62.5,34.0,30.12,WSW,242,4.0,14.0,34,0.00,,,0.06,weatherlink.com 1.10,2013-01-31 19:48:00,
2013-01-31 15:03:00,63.1,34.0,30.12,WNW,302,4.0,15.0,34,0.00,,,0.06,weatherlink.com 1.10,2013-01-31 20:03:00,
2013-01-31 15:18:00,62.9,33.0,30.12,WNW,296,4.0,12.0,33,0.00,,,0.06,weatherlink.com 1.10,2013-01-31 20:18:00,
2013-01-31 15:33:00,62.9,33.0,30.12,WNW,298,5.0,17.0,33,0.00,,,0.06,weatherlink.com 1.10,2013-01-31 20:33:00,
2013-01-31 15:48:00,62.5,34.0,30.12,North,5,6.0,15.0,34,0.00,,,0.06,weatherlink.com 1.10,2013-01-31 20:48:00,
2013-01-31 16:03:00,62.6,34.0,30.12,West,271,2.0,11.0,34,0.00,,,0.06,weatherlink.com 1.10,2013-01-31 21:03:00,
2013-01-31 16:18:00,62.2,33.0,30.13,WNW,298,4.0,13.0,33,0.00,,,0.06,weatherlink.com 1.10,2013-01-31 21:18:00,
2013-01-31 16:33:00,61.3,33.0,30.13,WSW,252,2.0,14.0,34,0.00,,,0.06,weatherlink.com 1.10,2013-01-31 21:33:00,
2013-01-31 16:48:00,61.0,33.0,30.13,West,269,6.0,12.0,35,0.00,,,0.06,weatherlink.com 1.10,2013-01-31 21:48:00,
2013-01-31 17:03:00,60.8,34.0,30.13,NNW,336,3.0,10.0,37,0.00,,,0.06,weatherlink.com 1.10,2013-01-31 22:03:00,
2013-01-31 17:18:00,58.3,33.0,30.14,WNW,300,7.0,12.0,38,0.00,,,0.06,weatherlink.com 1.10,2013-01-31 22:18:00,
2013-01-31 17:33:00,56.7,31.0,30.14,WNW,296,4.0,12.0,38,0.00,,,0.06,weatherlink.com 1.10,2013-01-31 22:33:00,
2013-01-31 17:48:00,55.2,32.0,30.15,West,272,8.0,11.0,41,0.00,,,0.06,weatherlink.com 1.10,2013-01-31 22:48:00,
2013-01-31 18:03:00,54.2,33.0,30.15,NW,322,4.0,9.0,44,0.00,,,0.06,weatherlink.com 1.10,2013-01-31 23:03:00,
2013-01-31 18:18:00,53.3,31.0,30.16,WNW,292,0.0,9.0,42,0.00,,,0.06,weatherlink.com 1.10,2013-01-31 23:18:00,
2013-01-31 18:33:00,51.8,31.0,30.17,WNW,299,2.0,6.0,45,0.00,,,0.06,weatherlink.com 1.10,2013-01-31 23:33:00,
2013-01-31 18:48:00,50.1,32.0,30.18,WNW,299,1.0,3.0,51,0.00,,,0.06,weatherlink.com 1.10,2013-01-31 23:48:00,
2013-01-31 19:03:00,48.4,32.0,30.18,NW,314,2.0,5.0,53,0.00,,,0.06,weatherlink.com 1.10,2013-02-01 00:03:00,
2013-01-31 19:18:00,48.0,31.0,30.19,NW,319,1.0,5.0,53,0.00,,,0.06,weatherlink.com 1.10,2013-02-01 00:18:00,
2013-01-31 19:33:00,47.5,32.0,30.19,NW,307,0.0,5.0,55,0.00,,,0.06,weatherlink.com 1.10,2013-02-01 00:33:00,
2013-01-31 19:48:00,46.0,34.0,30.20,NW,307,0.0,0.0,64,0.00,,,0.06,weatherlink.com 1.10,2013-02-01 00:48:00,
2013-01-31 20:03:00,44.8,36.0,30.20,NW,307,0.0,0.0,70,0.00,,,0.06,weatherlink.com 1.10,2013-02-01 01:03:00,
2013-01-31 20:18:00,43.2,35.0,30.21,NW,307,0.0,0.0,72,0.00,,,0.06,weatherlink.com 1.10,2013-02-01 01:18:00,
2013-01-31 20:34:00,42.5,36.0,30.22,NW,307,0.0,0.0,77,0.00,,,0.06,weatherlink.com 1.10,2013-02-01 01:34:00,
2013-01-31 20:49:00,41.6,36.0,30.23,NW,307,0.0,0.0,79,0.00,,,0.06,weatherlink.com 1.10,2013-02-01 01:49:00,
2013-01-31 21:04:00,40.7,35.0,30.23,NW,307,0.0,0.0,80,0.00,,,0.06,weatherlink.com 1.10,2013-02-01 02:04:00,
2013-01-31 21:19:00,40.0,35.0,30.23,NW,307,0.0,0.0,82,0.00,,,0.06,weatherlink.com 1.10,2013-02-01 02:19:00,
2013-01-31 21:34:00,39.5,35.0,30.24,NW,307,0.0,0.0,84,0.00,,,0.06,weatherlink.com 1.10,2013-02-01 02:34:00,
2013-01-31 21:49:00,39.5,35.0,30.24,NW,307,0.0,0.0,85,0.00,,,0.06,weatherlink.com 1.10,2013-02-01 02:49:00,
2013-01-31 22:04:00,39.0,35.0,30.25,NW,307,0.0,0.0,86,0.00,,,0.06,weatherlink.com 1.10,2013-02-01 03:04:00,
2013-01-31 22:19:00,39.1,36.0,30.25,NW,307,0.0,0.0,88,0.00,,,0.06,weatherlink.com 1.10,2013-02-01 03:19:00,
2013-01-31 22:34:00,38.5,35.0,30.25,NW,307,0.0,0.0,88,0.00,,,0.06,weatherlink.com 1.10,2013-02-01 03:34:00,
2013-01-31 22:49:00,38.6,36.0,30.25,NW,307,0.0,0.0,89,0.00,,,0.06,weatherlink.com 1.10,2013-02-01 03:49:00,
2013-01-31 23:04:00,38.4,36.0,30.25,NW,307,0.0,0.0,89,0.00,,,0.06,weatherlink.com 1.10,2013-02-01 04:04:00,
2013-01-31 23:19:00,38.7,36.0,30.25,NW,307,0.0,2.0,90,0.00,,,0.06,weatherlink.com 1.10,2013-02-01 04:19:00,
2013-01-31 23:34:00,38.8,36.0,30.25,NW,307,0.0,0.0,88,0.00,,,0.06,weatherlink.com 1.10,2013-02-01 04:34:00,
2013-01-31 23:49:00,38.5,36.0,30.25,NW,307,0.0,0.0,89,0.00,,,0.06,weatherlink.com 1.10,2013-02-01 04:49:00,